Trinidad, CO

1:51 AM MDT on September 23, 2017 (GMT -0600)
Stokes

Weather History for KTAD - February, 2013

Change the Weather History Date:

Tuesday, February 19, 2013

  Actual Average Record
Temperature  
Mean Temperature 33 °F 36 °F  
Max Temperature 54 °F 51 °F 71 °F (1986)
Min Temperature 11 °F 21 °F -12 °F (1955)
Degree Days  
Heating Degree Days 32 29  
Month to date heating degree days 557 589  
Since 1 July heating degree days 3607 3871  
Cooling Degree Days 0 0  
Month to date cooling degree days 0 0  
Year to date cooling degree days 0 0  
Moisture  
Dew Point 11 °F    
Average Humidity 46    
Maximum Humidity 76    
Minimum Humidity 16    
Precipitation  
Precipitation 0.00 in 0.02 in 0.34 in (2003)
Month to date precipitation 0.24 0.31  
Year to date precipitation 0.32 0.71  
Sea Level Pressure  
Sea Level Pressure 29.95 in    
Wind  
Wind Speed 13 mph (South)    
Max Wind Speed 37 mph    
Max Gust Speed 46 mph    
Visibility 10 miles    
Events      
T = Trace of Precipitation, MM = Missing Value Source: NWS Daily Summary

Daily Weather History Graph

Daily Weather History Graph

Search for Another Location

Airport or City:

Trip Planner

Search our weather history database for the weather conditions in past years. The results will help you decide how hot, cold, wet, or windy it might be!

Date:

Astronomy

Feb. 19, 2013 Rise Set
Actual Time 6:41 AM MST 5:41 PM MST
Civil Twilight 6:14 AM MST 6:08 PM MST
Nautical Twilight 5:44 AM MST 6:38 PM MST
Astronomical Twilight 5:14 AM MST 7:08 PM MST
Moon 12:19 PM MST (2/19) 2:11 AM MST (2/19)
Length of Visible Light 11h 53m
Length of Day
11h 00m
Waxing Gibbous, 68% of the Moon is Illuminated
Feb 19
Waxing Gibbous
Feb 25
Full
Mar 4
Last Quarter
Mar 11
New
Mar 19
First Quarter

Hourly Weather History & Observations

Time (MST) Temp. Windchill Dew Point Humidity Pressure Visibility Wind Dir Wind Speed Gust Speed Precip Events Conditions
12:54 AM 17.1 °F 7.6 °F 8.1 °F 68% 30.13 in 10.0 mi NW 6.9 mph - N/A   Clear
1:54 AM 16.0 °F 4.4 °F 7.0 °F 68% 30.11 in 10.0 mi West 9.2 mph - N/A   Clear
2:54 AM 18.0 °F 11.1 °F 8.1 °F 65% 30.08 in 10.0 mi SW 4.6 mph - N/A   Clear
3:54 AM 14.0 °F 5.1 °F 6.1 °F 71% 30.09 in 10.0 mi NW 5.8 mph - N/A   Clear
4:54 AM 15.1 °F 2.5 °F 7.0 °F 70% 30.09 in 10.0 mi South 10.4 mph - N/A   Clear
5:54 AM 16.0 °F 8.8 °F 7.0 °F 68% 30.10 in 10.0 mi West 4.6 mph - N/A   Clear
6:54 AM 12.9 °F 3.8 °F 6.1 °F 74% 30.14 in 10.0 mi NW 5.8 mph - N/A   Clear
7:54 AM 18.0 °F - 10.9 °F 74% 30.13 in 10.0 mi Calm Calm - N/A   Clear
8:54 AM 30.0 °F 26.5 °F 17.1 °F 59% 30.07 in 10.0 mi East 3.5 mph - N/A   Clear
9:54 AM 35.1 °F 31.0 °F 16.0 °F 46% 30.04 in 10.0 mi East 4.6 mph - N/A   Clear
11:54 AM 42.1 °F 36.1 °F 10.9 °F 28% 29.97 in 10.0 mi NE 10.4 mph - N/A   Clear
12:54 PM 45.0 °F 40.1 °F 9.0 °F 23% 29.90 in 10.0 mi ENE 9.2 mph - N/A   Clear
1:54 PM 51.1 °F - 7.0 °F 17% 29.84 in 10.0 mi SSE 6.9 mph - N/A   Clear
2:31 PM 53.6 °F - 10.4 °F 18% 29.81 in 10.0 mi South 19.6 mph 35.7 mph N/A   Clear
2:54 PM 53.1 °F - 10.9 °F 19% 29.79 in 10.0 mi South 20.7 mph 28.8 mph N/A   Clear
3:54 PM 51.1 °F - 12.9 °F 22% 29.81 in 10.0 mi South 27.6 mph 34.5 mph N/A   Clear
5:54 PM 45.0 °F 36.0 °F 16.0 °F 31% 29.81 in 10.0 mi South 25.3 mph 34.5 mph N/A   Clear
6:54 PM 44.1 °F 35.4 °F 16.0 °F 32% 29.84 in 10.0 mi South 21.9 mph 28.8 mph N/A   Clear
7:54 PM 44.1 °F 33.5 °F 14.0 °F 30% 29.78 in 10.0 mi South 33.4 mph 44.9 mph N/A   Clear
8:54 PM 39.9 °F 30.0 °F 15.1 °F 36% 29.80 in 10.0 mi South 21.9 mph 31.1 mph N/A   Partly Cloudy
9:54 PM 39.0 °F 28.8 °F 17.1 °F 41% 29.76 in 10.0 mi SSE 21.9 mph 27.6 mph N/A   Clear
11:54 PM 34.0 °F 26.6 °F 17.1 °F 50% 29.73 in 10.0 mi South 9.2 mph - N/A   Clear